Auburn, IN

3:46 PM EST on December 06, 2019 (GMT -0500)
Auburn

Weather History for KGWB - August, 2019

Change the Weather History Date:

Saturday, August 31, 2019

  Actual Average (KFWA) Record (KFWA)
Temperature  
Mean Temperature 61 °F -  
Max Temperature 69 °F 80 °F 98 °F (1951)
Min Temperature 53 °F 59 °F 43 °F (1915)
Degree Days  
Heating Degree Days 4    
Growing Degree Days 11 (Base 50)    
Moisture  
Dew Point 55 °F    
Average Humidity 79    
Maximum Humidity 94    
Minimum Humidity 68    
Precipitation  
Precipitation 0.00 in - - ()
Sea Level Pressure  
Sea Level Pressure 30.27 in    
Wind  
Wind Speed 6 mph (ENE)    
Max Wind Speed 13 mph    
Max Gust Speed 21 mph    
Visibility 10 miles    
Events      
Averages and records for this station are not official NWS values.
T = Trace of Precipitation, MM = Missing Value Source: NWS Daily Summary

Daily Weather History Graph

Daily Weather History Graph

Search for Another Location

Airport or City:

Astronomy

Aug. 31, 2019 Rise Set
Actual Time 7:05 AM EDT 8:15 PM EDT
Civil Twilight 6:36 AM EDT 8:43 PM EDT
Nautical Twilight 6:02 AM EDT 9:17 PM EDT
Astronomical Twilight 5:27 AM EDT 9:52 PM EDT
Moon 8:20 AM EDT (8/31) 9:26 PM EDT (8/31)
Length of Visible Light 14h 06m
Length of Day
13h 09m
New Moon, 2% of the Moon is Illuminated
Aug 31
New Moon
Sep 5
First Quarter
Sep 14
Full
Sep 21
Last Quarter
Sep 28
New

Hourly Weather History & Observations

Time (EDT) Temp. Dew Point Humidity Pressure Visibility Wind Dir Wind Speed Gust Speed Precip Events Conditions
12:15 AM 59.0 °F 53.6 °F 82% 30.23 in 10.0 mi NNE 3.5 mph - N/A   Clear
12:35 AM 59.0 °F 53.6 °F 82% 30.23 in 10.0 mi Calm Calm - N/A   Clear
12:55 AM 59.0 °F 53.6 °F 82% 30.24 in 10.0 mi Calm Calm - N/A   Clear
1:15 AM 57.2 °F 53.6 °F 88% 30.24 in 10.0 mi Calm Calm - N/A   Clear
1:35 AM 57.2 °F 53.6 °F 88% 30.25 in 10.0 mi North 3.5 mph - N/A   Clear
1:55 AM 57.2 °F 53.6 °F 88% 30.25 in 10.0 mi North 3.5 mph - N/A   Clear
2:15 AM 57.2 °F 51.8 °F 82% 30.24 in 10.0 mi NNE 4.6 mph - N/A   Clear
2:35 AM 55.4 °F 51.8 °F 88% 30.25 in 10.0 mi NNE 4.6 mph - N/A   Clear
2:55 AM 55.4 °F 51.8 °F 88% 30.25 in 10.0 mi NNE 3.5 mph - N/A   Clear
3:15 AM 55.4 °F 51.8 °F 88% 30.25 in 10.0 mi NNE 3.5 mph - N/A   Clear
3:35 AM 55.4 °F 51.8 °F 88% 30.25 in 10.0 mi NE 3.5 mph - N/A   Clear
3:55 AM 53.6 °F 51.8 °F 94% 30.25 in 10.0 mi NNE 4.6 mph - N/A   Clear
4:15 AM 55.4 °F 51.8 °F 88% 30.26 in 10.0 mi NNE 4.6 mph - N/A   Clear
4:35 AM 55.4 °F 51.8 °F 88% 30.26 in 10.0 mi NNE 5.8 mph - N/A   Clear
4:55 AM 55.4 °F 50.0 °F 82% 30.26 in 10.0 mi NE 5.8 mph - N/A   Clear
5:15 AM 55.4 °F 50.0 °F 82% 30.27 in 10.0 mi NE 5.8 mph - N/A   Clear
5:35 AM 55.4 °F 50.0 °F 82% 30.27 in 10.0 mi NE 6.9 mph - N/A   Clear
5:55 AM 55.4 °F 50.0 °F 82% 30.27 in 10.0 mi NE 6.9 mph - N/A   Clear
6:15 AM 55.4 °F 50.0 °F 82% 30.28 in 10.0 mi NE 8.1 mph - N/A   Clear
6:35 AM 55.4 °F 50.0 °F 82% 30.28 in 10.0 mi NE 6.9 mph - N/A   Clear
6:55 AM 55.4 °F 50.0 °F 82% 30.28 in 10.0 mi ENE 6.9 mph - N/A   Clear
7:15 AM 53.6 °F 50.0 °F 88% 30.28 in 10.0 mi ENE 6.9 mph - N/A   Clear
7:35 AM 55.4 °F 50.0 °F 82% 30.29 in 10.0 mi ENE 6.9 mph - N/A   Clear
7:55 AM 55.4 °F 50.0 °F 82% 30.29 in 10.0 mi ENE 6.9 mph - N/A   Clear
8:15 AM 55.4 °F 50.0 °F 82% 30.30 in 10.0 mi ENE 6.9 mph - N/A   Clear
8:35 AM 55.4 °F 51.8 °F 88% 30.30 in 10.0 mi ENE 9.2 mph - N/A   Clear
8:55 AM 59.0 °F 51.8 °F 77% 30.30 in 10.0 mi ENE 9.2 mph - N/A   Clear
9:15 AM 60.8 °F 53.6 °F 77% 30.30 in 10.0 mi ENE 12.7 mph - N/A   Clear
9:35 AM 62.6 °F 55.4 °F 77% 30.30 in 10.0 mi East 11.5 mph - N/A   Clear
9:55 AM 62.6 °F 55.4 °F 77% 30.31 in 10.0 mi ENE 11.5 mph - N/A   Clear
10:15 AM 64.4 °F 59.0 °F 83% 30.31 in 10.0 mi East 12.7 mph 17.3 mph N/A   Clear
10:35 AM 64.4 °F 57.2 °F 77% 30.31 in 10.0 mi ENE 12.7 mph 20.7 mph N/A   Clear
10:55 AM 64.4 °F 57.2 °F 77% 30.32 in 10.0 mi East 10.4 mph 16.1 mph N/A   Scattered Clouds
11:15 AM 64.4 °F 57.2 °F 77% 30.32 in 10.0 mi ENE 9.2 mph - N/A   Scattered Clouds
11:35 AM 68.0 °F 59.0 °F 73% 30.32 in 10.0 mi ENE 9.2 mph - N/A   Clear
11:55 AM 68.0 °F 59.0 °F 73% 30.32 in 10.0 mi East 10.4 mph 16.1 mph N/A   Clear
12:15 PM 68.0 °F 59.0 °F 73% 30.31 in 10.0 mi ENE 10.4 mph - N/A   Clear
12:35 PM 69.8 °F 59.0 °F 68% 30.31 in 10.0 mi East 9.2 mph - N/A   Scattered Clouds
12:55 PM 68.0 °F 59.0 °F 73% 30.32 in 10.0 mi East 9.2 mph - N/A   Scattered Clouds
1:15 PM 69.8 °F 60.8 °F 73% 30.30 in 10.0 mi East 11.5 mph 17.3 mph N/A   Scattered Clouds
1:35 PM 69.8 °F 59.0 °F 68% 30.30 in 10.0 mi East 11.5 mph - N/A   Scattered Clouds
1:55 PM 68.0 °F 59.0 °F 73% 30.30 in 10.0 mi East 6.9 mph - N/A   Mostly Cloudy
2:15 PM 68.0 °F 59.0 °F 73% 30.30 in 10.0 mi East 9.2 mph - N/A   Mostly Cloudy
2:35 PM 68.0 °F 59.0 °F 73% 30.29 in 10.0 mi East 8.1 mph - N/A   Mostly Cloudy
2:55 PM 68.0 °F 59.0 °F 73% 30.29 in 10.0 mi East 5.8 mph - N/A   Overcast
3:15 PM 68.0 °F 59.0 °F 73% 30.28 in 10.0 mi East 9.2 mph - N/A   Overcast
3:35 PM 68.0 °F 59.0 °F 73% 30.28 in 10.0 mi East 9.2 mph - N/A   Overcast
3:55 PM 68.0 °F 59.0 °F 73% 30.28 in 10.0 mi East 8.1 mph - N/A   Mostly Cloudy
4:15 PM 68.0 °F 59.0 °F 73% 30.27 in 10.0 mi ENE 9.2 mph - N/A   Mostly Cloudy
4:35 PM 68.0 °F 59.0 °F 73% 30.26 in 10.0 mi East 9.2 mph - N/A   Mostly Cloudy
4:55 PM 68.0 °F 59.0 °F 73% 30.27 in 10.0 mi ENE 8.1 mph - N/A   Scattered Clouds
5:15 PM 68.0 °F 59.0 °F 73% 30.26 in 10.0 mi ENE 8.1 mph - N/A   Scattered Clouds
5:35 PM 69.8 °F 60.8 °F 73% 30.26 in 10.0 mi ENE 9.2 mph - N/A   Mostly Cloudy
5:55 PM 69.8 °F 59.0 °F 68% 30.26 in 10.0 mi ENE 11.5 mph - N/A   Mostly Cloudy
6:15 PM 68.0 °F 59.0 °F 73% 30.26 in 10.0 mi ENE 10.4 mph - N/A   Mostly Cloudy
6:35 PM 68.0 °F 59.0 °F 73% 30.25 in 10.0 mi East 10.4 mph - N/A   Mostly Cloudy
6:55 PM 68.0 °F 59.0 °F 73% 30.26 in 10.0 mi ENE 8.1 mph - N/A   Scattered Clouds
7:15 PM 66.2 °F 59.0 °F 78% 30.26 in 10.0 mi ENE 10.4 mph - N/A   Scattered Clouds
7:35 PM 64.4 °F 59.0 °F 83% 30.26 in 10.0 mi East 9.2 mph - N/A   Mostly Cloudy
7:55 PM 64.4 °F 59.0 °F 83% 30.26 in 10.0 mi ENE 10.4 mph 16.1 mph N/A   Mostly Cloudy
8:15 PM 64.4 °F 57.2 °F 77% 30.25 in 10.0 mi ENE 11.5 mph - N/A   Scattered Clouds
8:35 PM 64.4 °F 57.2 °F 77% 30.25 in 10.0 mi East 9.2 mph - N/A   Mostly Cloudy
8:55 PM 62.6 °F 57.2 °F 82% 30.25 in 10.0 mi ENE 6.9 mph - N/A   Mostly Cloudy
9:15 PM 62.6 °F 57.2 °F 82% 30.25 in 10.0 mi ENE 8.1 mph - N/A   Mostly Cloudy
9:35 PM 62.6 °F 57.2 °F 82% 30.25 in 10.0 mi ENE 8.1 mph - N/A   Scattered Clouds
9:55 PM 62.6 °F 55.4 °F 77% 30.25 in 10.0 mi ENE 6.9 mph - N/A   Clear
10:15 PM 60.8 °F 55.4 °F 82% 30.25 in 10.0 mi East 4.6 mph - N/A   Clear
10:35 PM 60.8 °F 55.4 °F 82% 30.24 in 10.0 mi East 5.8 mph - N/A   Clear
10:55 PM 60.8 °F 55.4 °F 82% 30.25 in 10.0 mi East 4.6 mph - N/A   Clear
11:15 PM 60.8 °F 55.4 °F 82% 30.25 in 10.0 mi East 4.6 mph - N/A   Clear
11:35 PM 60.8 °F 55.4 °F 82% 30.25 in 10.0 mi East 3.5 mph - N/A   Clear
11:55 PM 59.0 °F 55.4 °F 88% 30.25 in 10.0 mi East 4.6 mph - N/A   Clear